Location: Caltech
(34.1382°N, 118.1253°W)
Time: 07:55:37
(UTC-07:00)

Cosmos 1937 Rocket - Visible Passes

Search period start: 25 May 2016 00:00
Search period end: 04 June 2016 00:00
Orbit: 747 x 781 km, 74.0° (Epoch: 25 May)

Date Brightness Start Highest point End Pass type
(mag) Time Alt. Az. Time Alt. Az. Time Alt. Az.
25 May 4.6 04:19:44 10° S 04:24:43 43° ESE 04:29:44 10° NNE visible
26 May 5.5 03:42:32 10° SSE 03:46:40 23° E 03:50:49 10° NE visible
27 May 6.1 03:06:39 10° ESE 03:08:42 12° E 03:10:47 10° ENE visible
27 May 3.6 04:45:03 11° SSW 04:50:02 63° WNW 04:55:18 10° N visible
28 May 3.7 04:07:56 19° S 04:11:47 71° ESE 04:17:05 10° NNE visible
29 May 4.7 03:30:47 21° SSE 03:33:39 38° E 03:38:31 10° NE visible
29 May 4.9 05:11:36 10° WSW 05:15:41 22° WNW 05:19:47 10° NNW visible
30 May 5.5 02:53:34 16° SE 02:55:37 20° E 02:59:26 10° NE visible
30 May 4.2 04:33:45 18° SW 04:37:14 39° WNW 04:42:12 10° N visible
31 May 6.1 02:16:58 10° ESE 02:17:41 10° E 02:18:24 10° E visible
31 May 3.5 03:56:31 33° SSW 03:58:55 73° WNW 04:04:13 10° NNE visible
01 Jun 3.8 03:19:12 43° SSE 03:20:42 61° ESE 03:25:56 10° NNE visible
01 Jun 5.5 05:00:15 10° W 05:03:04 14° WNW 05:05:54 10° NNW visible
02 Jun 4.7 02:41:52 31° ESE 02:42:35 33° E 02:47:16 10° NE visible
02 Jun 4.8 04:22:03 18° WSW 04:24:31 25° WNW 04:28:52 10° N visible
03 Jun 5.6 02:04:29 18° E 02:04:34 18° E 02:08:01 10° NE visible
03 Jun 4.0 03:44:40 36° WSW 03:46:06 45° WNW 03:51:11 10° N visible
